RH
39 39 53 44 41 39 33 31 31 31 29 30 30 31 31 30 31 34 42 46 54 61 60 50 51 48 41 39 35 38 42 42 41 42 37 34 35 39 39 43 40 47 34
38 42 41 38 34 31 28 27 28 27 25 26 26 26 26 27 28 31 32 36 40 39 36 36 37 42 38 36 34 35 37 37 38 39 41 36 36 34 35 37 43 46 46
36 40 35 33 30 26 23 22 21 19 18 19 18 18 17 18 19 21 22 23 24 26 28 27 28 31 33 35 33 33 37 39 36 36 37 39 39 34 33 34 37 41 48
35 35 31 28 24 21 17 14 12 10 9 9 9 9 9 10 10 10 11 11 13 15 16 19 22 24 27 30 29 29 33 35 33 33 36 42 44 38 31 32 36 42 59
32 30 28 25 21 17 11 7 7 8 8 8 8 8 8 8 8 8 8 8 8 8 9 10 12 14 15 18 20 22 24 27 30 33 38 42 39 36 36 30 31 34 37
29 26 24 21 16 10 8 8 8 9 9 9 9 9 10 10 10 10 10 10 10 10 9 9 10 10 10 10 11 13 16 19 22 26 37 39 32 35 35 32 31 31 33
25 24 21 16 11 9 8 8 9 9 9 9 9 10 10 10 9 9 9 9 9 10 10 11 11 11 11 10 10 9 9 10 12 15 23 29 33 29 29 27 29 32 34
22 20 16 12 10 8 8 9 9 9 9 9 9 9 9 8 8 7 8 8 8 9 10 10 11 11 12 12 12 12 12 11 11 16 20 22 25 23 21 27 27 30 33
19 16 13 12 10 9 9 10 9 9 9 9 9 9 8 7 7 7 7 7 8 8 8 9 10 10 10 10 11 11 11 11 12 15 14 20 17 17 16 18 23 26 33
16 14 13 11 10 10 10 10 9 9 9 9 9 9 7 7 7 7 7 8 8 8 8 9 9 9 9 8 9 9 9 9 12 13 14 14 13 13 14 14 16 19 22
16 13 13 12 10 10 10 10 9 9 9 9 9 8 7 8 8 9 9 10 10 10 9 10 10 11 10 10 10 9 9 12 12 13 14 13 11 12 15 15 15 15 15
16 13 13 12 10 10 9 10 10 10 10 10 9 8 8 9 9 9 10 10 10 10 10 10 11 11 11 13 15 12 12 11 11 14 14 10 10 11 12 14 15 15 15
16 13 13 11 10 10 10 10 11 10 10 10 9 9 9 9 8 10 12 11 11 11 11 11 12 11 10 10 11 11 12 12 15 16 14 13 12 12 12 13 13 13 13
15 13 13 12 11 11 11 11 10 10 10 11 10 9 8 8 8 9 9 9 9 10 10 10 10 9 8 8 8 8 10 13 16 18 16 14 14 14 14 14 14 14 14
16 13 13 13 13 12 11 10 10 10 11 11 10 9 8 8 8 8 8 8 9 9 8 7 7 6 7 7 8 8 8 13 15 18 18 13 14 15 15 16 16 16 16
16 14 14 13 13 12 11 11 10 10 11 11 10 10 9 9 9 8 9 8 8 8 7 6 6 5 5 5 6 6 8 13 14 16 17 12 12 12 13 14 15 16 16
16 16 14 14 13 12 12 12 11 11 11 11 11 11 10 10 9 9 9 9 8 7 7 7 7 7 7 7 7 7 8 10 15 13 12 13 12 11 12 12 13 13 14
16 17 16 14 13 13 13 13 12 12 11 11 12 12 12 11 10 10 10 10 9 9 8 8 8 8 8 8 7 8 10 11 12 14 12 12 12 14 13 13 13 13 14
16 18 17 14 13 13 13 13 13 12 11 12 12 13 12 12 12 12 12 12 12 11 11 11 12 11 11 11 10 10 10 12 15 15 15 13 13 13 13 12 11 11 11
17 17 17 14 14 13 13 14 14 12 11 12 13 14 13 13 14 14 14 14 15 15 14 14 14 14 14 15 15 14 14 15 14 16 17 14 12 12 13 11 12 12 10
16 16 16 15 15 14 14 16 16 15 15 13 14 14 14 15 15 15 15 16 17 18 18 17 17 17 17 18 18 19 19 19 20 22 19 18 19 15 14 15 16 15 14
15 16 17 16 15 15 16 15 13 13 14 14 16 18 19 20 19 16 16 18 19 20 22 23 22 22 22 23 23 25 25 25 24 26 27 23 21 18 17 18 17 17 17
17 18 17 17 16 16 15 14 13 14 16 19 23 23 22 22 22 21 21 20 21 22 24 26 27 27 25 26 26 28 30 31 30 32 32 32 32 32 32 29 29 28 27
19 19 16 17 16 16 14 15 17 19 21 24 24 22 21 21 23 24 26 26 27 28 29 30 32 31 29 30 32 33 34 36 38 38 38 38 37 37 36 35 33 32 30
18 17 17 17 16 15 15 16 16 17 20 21 20 20 20 23 24 27 29 29 31 33 34 35 36 35 37 38 40 41 42 41 42 43 42 41 41 40 38 38 37 36 35
17 17 17 16 15 16 16 16 18 19 20 21 22 23 26 29 29 31 31 34 37 37 37 38 38 38 39 40 39 39 39 40 41 42 41 40 39 38 37 35 34 32 31